EW0690 Weather Reports


Display with metric or nautical units.
time (UTC)temp
F
wind
direction
speed
MPH
gust
MPH
rain 1hr
in
rain 24hr
in
rain mn
in
humidity
%
barometer
mb
20260906093102 84 91 1.0 6.0 0.00 0.00 0.00 70 1021.5
20260906091606 83 95 2.0 5.0 0.00 0.00 0.00 73 1021.5
20260906090018 82 63 0.0 5.0 0.00 0.00 0.00 76 1021.4
20260906084530 82 67 1.0 6.0 0.00 0.00 0.00 77 1021.4
20260906083049 81 298 0.0 5.0 0.00 0.00 0.00 77 1021.4
20260906081511 80 269 0.0 3.0 0.00 0.00 0.00 77 1021.4
20260906080121 80 24 2.0 5.0 0.00 0.00 0.00 76 1021.3
20260906074544 79 20 2.0 5.0 0.00 0.00 0.00 76 1021.2
20260906073004 79 335 1.0 4.0 0.00 0.00 0.00 75 1021.1
20260906071527 78 41 0.0 3.0 0.00 0.00 0.00 77 1021.0
20260906070056 78 8 1.0 4.0 0.00 0.00 0.00 75 1021.0
20260906064510 78 259 0.0 1.0 0.00 0.00 0.00 72 1020.9
20260906063036 77 256 0.0 2.0 0.00 0.00 0.00 73 1020.7
20260906061556 76 163 0.0 0.0 0.00 0.00 0.00 73 1020.7
20260906060010 75 269 0.0 3.0 0.00 0.00 0.00 73 1020.5
20260906054531 75 281 0.0 2.0 0.00 0.00 0.00 73 1020.4
20260906053045 75 295 0.0 2.0 0.00 0.00 0.00 73 1020.3
20260906051501 75 256 0.0 1.0 0.00 0.00 0.00 75 1020.1
20260906050018 75 267 0.0 1.0 0.00 0.00 0.00 75 1020.1
20260906044538 74 267 0.0 0.0 0.00 0.00 0.00 75 1019.9
20260906043100 74 267 0.0 0.0 0.00 0.00 0.00 76 1019.8
20260906041543 73 266 0.0 0.0 0.00 0.00 0.00 76 1019.7
20260906040103 73 267 0.0 0.0 0.00 0.00 0.00 77 1019.6
20260906034509 72 266 0.0 1.0 0.00 0.00 0.00 77 1019.5
20260906033038 73 215 0.0 0.0 0.00 0.00 0.00 75 1019.3
20260906031514 73 221 0.0 1.0 0.00 0.00 0.00 74 1019.3
20260906030010 74 224 1.0 3.0 0.00 0.00 0.00 72 1019.2
20260906024542 75 325 0.0 2.0 0.00 0.00 0.00 71 1019.3
20260906023023 75 1 0.0 1.0 0.00 0.00 0.00 69 1019.0
20260906021528 75 299 1.0 4.0 0.00 0.00 0.00 71 1018.7
20260906020101 74 271 0.0 2.0 0.00 0.00 0.00 72 1018.6
20260906014527 75 64 0.0 1.0 0.00 0.00 0.00 69 1018.4
20260906013046 76 64 0.0 2.0 0.00 0.00 0.00 68 1018.5
20260906011554 75 275 0.0 0.0 0.00 0.00 0.00 70 1018.4
20260906010008 75 276 0.0 1.0 0.00 0.00 0.00 69 1018.3
20260906004524 75 270 0.0 0.0 0.00 0.00 0.00 69 1018.3
20260906003044 75 270 0.0 0.0 0.00 0.00 0.00 68 1018.3
20260906001601 75 269 0.0 1.0 0.00 0.00 0.00 67 1018.3
20260906000015 76 271 0.0 1.0 0.00 0.00 0.00 66 1018.3
20260905234536 76 256 0.0 1.0 0.00 0.00 0.00 65 1018.3
20260905233051 76 256 0.0 1.0 0.00 0.00 0.00 64 1018.1
20260905231507 77 215 0.0 1.0 0.00 0.00 0.00 61 1017.9
20260905230024 78 194 0.0 0.0 0.00 0.00 0.00 61 1017.9
20260905224543 78 150 0.0 1.0 0.00 0.00 0.00 59 1017.8
20260905223100 79 129 0.0 3.0 0.00 0.00 0.00 57 1017.8
20260905221620 80 52 0.0 2.0 0.00 0.00 0.00 56 1017.7
20260905220057 80 116 0.0 5.0 0.00 0.00 0.00 56 1017.5
20260905214526 81 158 1.0 3.0 0.00 0.00 0.00 53 1017.4
20260905213057 81 101 0.0 2.0 0.00 0.00 0.00 52 1017.2
20260905211504 82 119 1.0 3.0 0.00 0.00 0.00 52 1017.1
20260905210028 82 142 0.0 3.0 0.00 0.00 0.00 51 1017.0
20260905204546 83 123 0.0 2.0 0.00 0.00 0.00 49 1016.9
20260905203010 83 128 1.0 3.0 0.00 0.00 0.00 49 1016.8
20260905201558 83 125 1.0 2.0 0.00 0.00 0.00 49 1016.8
20260905200004 83 148 0.0 1.0 0.00 0.00 0.00 50 1016.8
20260905194519 84 166 0.0 1.0 0.00 0.00 0.00 49 1016.7
20260905193113 85 207 1.0 2.0 0.00 0.00 0.00 48 1016.5
20260905191514 85 97 0.0 2.0 0.00 0.00 0.00 48 1016.4
20260905190035 86 80 0.0 1.0 0.00 0.00 0.00 49 1016.2
20260905184554 87 135 0.0 2.0 0.00 0.00 0.00 48 1016.1
20260905183007 87 212 0.0 3.0 0.00 0.00 0.00 49 1015.8
20260905181523 88 135 0.0 1.0 0.00 0.00 0.00 49 1015.7
20260905180044 89 266 0.0 4.0 0.00 0.00 0.00 48 1015.5
20260905174605 90 139 0.0 3.0 0.00 0.00 0.00 46 1015.4
20260905173012 92 221 0.0 1.0 0.00 0.00 0.00 43 1015.3
20260905171530 93 273 1.0 3.0 0.00 0.00 0.00 36 1015.3
20260905170049 93 319 0.0 6.0 0.00 0.00 0.00 35 1015.1
20260905164520 94 36 3.0 7.0 0.00 0.00 0.00 34 1015.0
20260905163039 95 278 0.0 4.0 0.00 0.00 0.00 34 1014.8
20260905161605 95 33 1.0 6.0 0.00 0.00 0.00 34 1014.8
20260905160031 96 276 0.0 4.0 0.00 0.00 0.00 33 1014.7
20260905154604 96 321 0.0 6.0 0.00 0.00 0.00 33 1014.6
20260905153013 96 79 0.0 6.0 0.00 0.00 0.00 33 1014.6
20260905151533 96 22 0.0 5.0 0.00 0.00 0.00 32 1014.6
20260905150056 95 58 0.0 4.0 0.00 0.00 0.00 32 1014.7
20260905144509 96 117 1.0 6.0 0.00 0.00 0.00 32 1014.8
20260905143029 96 70 0.0 7.0 0.00 0.00 0.00 32 1014.8
20260905141545 96 252 0.0 3.0 0.00 0.00 0.00 31 1014.9
20260905140106 96 289 0.0 5.0 0.00 0.00 0.00 32 1015.0
20260905134516 95 134 0.0 2.0 0.00 0.00 0.00 32 1015.2
20260905133034 95 262 0.0 5.0 0.00 0.00 0.00 32 1015.4
20260905131558 94 302 3.0 7.0 0.00 0.00 0.00 33 1015.5
20260905130005 94 273 1.0 5.0 0.00 0.00 0.00 33 1015.7
20260905124526 93 355 3.0 7.0 0.00 0.00 0.00 32 1015.7
20260905123043 92 55 3.0 8.0 0.00 0.00 0.00 33 1015.9
20260905121603 92 284 1.0 7.0 0.00 0.00 0.00 32 1016.1
20260905120029 92 339 3.0 8.0 0.00 0.00 0.00 33 1016.2
20260905114544 92 18 2.0 8.0 0.00 0.00 0.00 33 1016.2
20260905113030 92 104 4.0 9.0 0.00 0.00 0.00 33 1016.2
20260905111547 92 11 4.0 10.0 0.00 0.00 0.00 32 1016.3
20260905110017 90 315 5.0 8.0 0.00 0.00 0.00 34 1016.4
20260905104508 90 276 3.0 10.0 0.00 0.00 0.00 34 1016.6
20260905103026 89 302 3.0 9.0 0.00 0.00 0.00 35 1016.5
20260905101536 89 276 2.0 6.0 0.00 0.00 0.00 36 1016.6
20260905100058 88 33 2.0 7.0 0.00 0.00 0.00 38 1016.7
20260905094507 87 290 4.0 9.0 0.00 0.00 0.00 37 1017.0